• In Moldova, Republic
  • List of Countries
  • For 7 days
  • Water Temperature
  • Satellite Maps
  • Weather Map
  • Weather Widgets
  • user-avatar
    Login

    Hourly Weather Satif

    Today, 20 February, Monday

    Time Temperature Precipitation Wind Pressure Humidity
    00:00 +3°C° 0 mm 0 mps 673 mmHg 91%
    01:00 +3°C° 0 mm 0 mps 673 mmHg 91%
    02:00 +3°C° 0 mm 0 mps 673 mmHg 91%
    03:00 +3°C° 0 mm 1 mps 673 mmHg 91%
    04:00 +3°C° 0 mm 1 mps 673 mmHg 91%
    05:00 +2°C° 0 mm 0 mps 673 mmHg 90%
    06:00 +2°C° 0 mm 0 mps 673 mmHg 90%
    07:00 +5°C° 0 mm 0 mps 674 mmHg 80%
    08:00 +9°C° 0 mm 1 mps 675 mmHg 69%
    09:00 +12°C° 0 mm 1 mps 676 mmHg 59%
    10:00 +13°C° 0 mm 1 mps 676 mmHg 54%
    11:00 +15°C° 0 mm 1 mps 676 mmHg 49%
    12:00 +16°C° 0 mm 1 mps 676 mmHg 44%
    13:00 +16°C° 0 mm 1 mps 676 mmHg 45%
    14:00 +16°C° 0 mm 1 mps 676 mmHg 47%
    15:00 +16°C° 0 mm 1 mps 675 mmHg 48%
    16:00 +13°C° 0 mm 1 mps 675 mmHg 59%
    17:00 +11°C° 0 mm 1 mps 674 mmHg 71%
    18:00 +8°C° 0 mm 1 mps 673 mmHg 82%
    19:00 +7°C° 0 mm 1 mps 674 mmHg 85%
    20:00 +7°C° 0 mm 1 mps 674 mmHg 88%
    21:00 +6°C° 0 mm 1 mps 674 mmHg 91%
    22:00 +6°C° 0 mm 1 mps 674 mmHg 91%
    23:00 +6°C° 0 mm 1 mps 674 mmHg 92%

    Tomorrow, 21 February, Tuesday

    Time Temperature Precipitation Wind Pressure Humidity
    00:00 +6°C° 0 mm 1 mps 674 mmHg 92%
    01:00 +6°C° 0 mm 1 mps 674 mmHg 93%
    02:00 +6°C° 0 mm 1 mps 674 mmHg 94%
    03:00 +6°C° 0 mm 1 mps 674 mmHg 94%
    04:00 +5°C° 0 mm 1 mps 674 mmHg 94%
    05:00 +5°C° 0 mm 1 mps 674 mmHg 95%
    06:00 +5°C° 0 mm 1 mps 674 mmHg 95%
    07:00 +7°C° 0 mm 1 mps 674 mmHg 87%
    08:00 +9°C° 0 mm 1 mps 675 mmHg 80%
    09:00 +11°C° 0 mm 1 mps 676 mmHg 72%
    10:00 +13°C° 0 mm 1 mps 676 mmHg 63%
    11:00 +15°C° 0 mm 1 mps 676 mmHg 53%
    12:00 +18°C° 0 mm 1 mps 677 mmHg 44%
    13:00 +18°C° 0 mm 1 mps 676 mmHg 44%
    14:00 +17°C° 0 mm 2 mps 676 mmHg 44%
    15:00 +17°C° 0 mm 2 mps 675 mmHg 44%
    16:00 +14°C° 0 mm 2 mps 675 mmHg 53%
    17:00 +10°C° 0 mm 2 mps 674 mmHg 63%
    18:00 +9°C° 0 mm 1 mps 674 mmHg 73%
    19:00 +8°C° 0 mm 1 mps 674 mmHg 74%
    20:00 +7°C° 0 mm 1 mps 674 mmHg 76%
    21:00 +7°C° 0 mm 1 mps 674 mmHg 78%
    22:00 +7°C° 0 mm 1 mps 674 mmHg 77%
    23:00 +7°C° 0 mm 1 mps 674 mmHg 77%

    Day after tomorrow, 22 February, Wednesday

    Time Temperature Precipitation Wind Pressure Humidity
    00:00 +6°C° 0 mm 2 mps 674 mmHg 76%
    01:00 +5°C° 0 mm 2 mps 674 mmHg 78%
    02:00 +6°C° 0 mm 1 mps 673 mmHg 79%
    03:00 +6°C° 0 mm 1 mps 673 mmHg 80%
    04:00 +6°C° 0 mm 1 mps 673 mmHg 81%
    05:00 +5°C° 0 mm 2 mps 673 mmHg 82%
    06:00 +5°C° 0 mm 2 mps 673 mmHg 83%
    07:00 +7°C° 0 mm 2 mps 674 mmHg 73%
    08:00 +9°C° 0 mm 2 mps 675 mmHg 64%
    09:00 +13°C° 0 mm 2 mps 676 mmHg 55%
    10:00 +15°C° 0 mm 2 mps 676 mmHg 49%
    11:00 +17°C° 0 mm 2 mps 676 mmHg 44%
    12:00 +19°C° 0 mm 2 mps 676 mmHg 39%
    13:00 +19°C° 0 mm 2 mps 676 mmHg 39%
    14:00 +19°C° 0 mm 3 mps 675 mmHg 39%
    15:00 +19°C° 0 mm 3 mps 675 mmHg 39%
    16:00 +17°C° 0 mm 3 mps 674 mmHg 48%
    17:00 +14°C° 0 mm 2 mps 674 mmHg 57%
    18:00 +12°C° 0 mm 2 mps 673 mmHg 66%
    19:00 +10°C° 0 mm 2 mps 673 mmHg 67%
    20:00 +10°C° 0 mm 2 mps 673 mmHg 67%
    21:00 +10°C° 0 mm 2 mps 674 mmHg 67%
    22:00 +10°C° 0 mm 2 mps 673 mmHg 70%
    23:00 +9°C° 0 mm 2 mps 673 mmHg 72%

    23 February, Thursday

    Time Temperature Precipitation Wind Pressure Humidity
    00:00 +9°C° 0 mm 2 mps 673 mmHg 74%
    01:00 +9°C° 0.1 mm 2 mps 673 mmHg 74%
    02:00 +9°C° 0.1 mm 2 mps 672 mmHg 73%
    03:00 +9°C° 0.1 mm 2 mps 672 mmHg 73%
    04:00 +10°C° 0.1 mm 1 mps 672 mmHg 75%
    05:00 +9°C° 0.1 mm 1 mps 672 mmHg 77%
    06:00 +9°C° 0.1 mm 1 mps 672 mmHg 79%
    07:00 +10°C° 0.2 mm 2 mps 672 mmHg 70%
    08:00 +14°C° 0.2 mm 2 mps 673 mmHg 61%
    09:00 +16°C° 0.2 mm 3 mps 674 mmHg 53%
    10:00 +17°C° 0 mm 4 mps 673 mmHg 49%
    11:00 +18°C° 0 mm 4 mps 673 mmHg 45%
    12:00 +17°C° 0 mm 5 mps 673 mmHg 41%
    13:00 +17°C° 0 mm 5 mps 672 mmHg 41%
    14:00 +17°C° 0 mm 5 mps 671 mmHg 41%
    15:00 +18°C° 0 mm 4 mps 670 mmHg 41%
    16:00 +17°C° 0 mm 4 mps 669 mmHg 43%
    17:00 +16°C° 0 mm 3 mps 669 mmHg 46%
    18:00 +13°C° 0 mm 3 mps 668 mmHg 49%
    19:00 +12°C° 0 mm 3 mps 668 mmHg 50%
    20:00 +12°C° 0 mm 3 mps 667 mmHg 51%
    21:00 +11°C° 0 mm 3 mps 667 mmHg 53%
    22:00 +10°C° 0 mm 3 mps 667 mmHg 53%
    23:00 +10°C° 0 mm 3 mps 667 mmHg 53%

    24 February, Friday

    Time Temperature Precipitation Wind Pressure Humidity
    00:00 +9°C° 0 mm 3 mps 666 mmHg 53%
    01:00 +9°C° 0 mm 2 mps 666 mmHg 56%
    02:00 +8°C° 0 mm 2 mps 666 mmHg 58%
    03:00 +7°C° 0 mm 2 mps 665 mmHg 60%
    04:00 +7°C° 0 mm 2 mps 666 mmHg 63%
    05:00 +6°C° 0 mm 2 mps 666 mmHg 66%
    06:00 +6°C° 0 mm 2 mps 666 mmHg 68%
    07:00 +8°C° 0 mm 2 mps 667 mmHg 64%
    08:00 +10°C° 0 mm 2 mps 668 mmHg 60%
    09:00 +13°C° 0 mm 2 mps 669 mmHg 56%
    10:00 +14°C° 0.1 mm 2 mps 669 mmHg 56%
    11:00 +14°C° 0.1 mm 3 mps 670 mmHg 55%
    12:00 +16°C° 0.1 mm 3 mps 670 mmHg 55%
    13:00 +14°C° 0.4 mm 3 mps 670 mmHg 58%
    14:00 +14°C° 0.4 mm 3 mps 669 mmHg 62%
    15:00 +13°C° 0.4 mm 3 mps 669 mmHg 65%
    16:00 +12°C° 0.2 mm 3 mps 669 mmHg 73%
    17:00 +10°C° 0.2 mm 2 mps 669 mmHg 81%
    18:00 +9°C° 0.2 mm 2 mps 670 mmHg 90%
    19:00 +8°C° 0.1 mm 2 mps 670 mmHg 91%
    20:00 +8°C° 0.1 mm 2 mps 671 mmHg 93%
    21:00 +8°C° 0.1 mm 2 mps 671 mmHg 95%
    22:00 +8°C° 0.1 mm 2 mps 672 mmHg 94%
    23:00 +8°C° 0.1 mm 2 mps 672 mmHg 93%

    25 February, Saturday

    Time Temperature Precipitation Wind Pressure Humidity
    00:00 +8°C° 0.1 mm 2 mps 672 mmHg 91%
    01:00 +7°C° 0.1 mm 2 mps 673 mmHg 92%
    02:00 +7°C° 0.1 mm 2 mps 673 mmHg 92%
    03:00 +7°C° 0.1 mm 2 mps 673 mmHg 93%
    04:00 +6°C° 0.1 mm 2 mps 673 mmHg 93%
    05:00 +6°C° 0.1 mm 2 mps 674 mmHg 93%
    06:00 +6°C° 0.1 mm 2 mps 674 mmHg 93%
    07:00 +6°C° 0.1 mm 2 mps 675 mmHg 90%
    08:00 +7°C° 0.1 mm 2 mps 675 mmHg 86%
    09:00 +7°C° 0.1 mm 2 mps 676 mmHg 83%
    10:00 +8°C° 0.1 mm 2 mps 676 mmHg 78%
    11:00 +8°C° 0.1 mm 2 mps 677 mmHg 74%
    12:00 +9°C° 0.1 mm 2 mps 677 mmHg 69%
    13:00 +9°C° 0 mm 2 mps 677 mmHg 67%
    14:00 +9°C° 0 mm 3 mps 677 mmHg 66%
    15:00 +9°C° 0 mm 3 mps 677 mmHg 65%
    16:00 +8°C° 0 mm 2 mps 677 mmHg 72%
    17:00 +6°C° 0 mm 2 mps 677 mmHg 79%
    18:00 +4°C° 0 mm 2 mps 676 mmHg 87%
    19:00 +4°C° 0 mm 1 mps 677 mmHg 89%
    20:00 +4°C° 0 mm 1 mps 677 mmHg 91%
    21:00 +3°C° 0 mm 1 mps 677 mmHg 94%
    22:00 +2°C° 0 mm 1 mps 677 mmHg 94%
    23:00 +2°C° 0 mm 1 mps 677 mmHg 94%
    Show more